Location: Newark
(47.5500°N, 8.6167°E)
Time: 11:29:07
(UTC+00:00)

Envisat - Pass Details

Date: 28 January 2020
Orbit: 764 x 766 km, 98.1° (Epoch: 20 February)

Event Time Altitude Azimuth Distance (km) Brightness Sun altitude
Rises 05:58:47 0° 16° (NNE) 3,244 6.3 -10.1°
Reaches altitude 10° 06:01:08 10° 19° (NNE) 2,313 5.5 -9.7°
Maximum altitude 06:06:12 64° 101° (E) 849 3.6 -8.9°
Drops below altitude 10° 06:11:13 10° 183° (S) 2,295 5.7 -8.1°
Sets 06:13:32 0° 187° (S) 3,216 6.4 -7.7°
